Regional Weather Roundup
Issued by NWS Midland/Odessa, TX

Skip options and go directly to product.
Home | Oldest Version | Previous Version | Current Version | All | Graphics & Text | Save Text | Print | Product List | Glossary On

Skip product version selection by date and time.   
481
ASUS44 KMAF 311510
RWRMAF
MIDLAND AREA WEATHER ROUNDUP
NATIONAL WEATHER SERVICE MIDLAND TX
1000 AM CDT THU JUL 31 2014

...IN SOUTHWEST TEXAS AND SOUTHEAST NEW MEXICO...

CITY           SKY/WX    TMP DP  RH WIND       PRES   REMARKS
ALPINE         CLOUDY    68  62  81 N12       30.32R
ANDREWS        CLOUDY    70  58  67 NE10      30.21R
ARTESIA        LGT RAIN  64  64 100 NW3       30.25S
BIG SPRING     CLOUDY    74  60  62 N14       30.19R
CARLSBAD       LGT RAIN  66  63  90 N7        30.23R FOG
DRYDEN           N/A     84  67  56 N14G23    30.08R
FORT STOCKTON  CLOUDY    72  62  71 N14       30.19F
GUAD PASS      CLOUDY    66  58  75 E22       30.31R
HOBBS          PTSUNNY   68  57  68 N14       30.25R
MARFA          PTSUNNY   70  61  73 N21       30.28S
MIDLAND AIRPK  CLOUDY    72  61  70 NE7       30.19S
MIDLAND INTL   CLOUDY    73  61  65 N12       30.18S
ODESSA         CLOUDY    71  60  68 NE8       30.20R
PECOS          CLOUDY    71  62  71 N10       30.20S
PRESIDIO       FAIR      81  61  50 MISG      30.11R
SEMINOLE       CLOUDY    69  56  64 N9G18     30.23R
SNYDER         CLOUDY    68  60  76 N15G21    30.17R
WINK           LGT RAIN  68  64  87 N8        30.20R
$$
...OTHER STATIONS IN TEXAS...

CITY           SKY/WX    TMP DP  RH WIND       PRES   REMARKS
ABILENE        CLOUDY    70  65  84 N16       30.10S
AMARILLO       SUNNY     67  54  63 N12       30.25R
AUSTIN         CLOUDY    82  73  74 SW6       29.99R
BROWNSVILLE    MOSUNNY   89  75  63 S23       29.94S
CORPUS CHRISTI MOSUNNY   89  74  60 S15       29.94R
DALLAS FTW     CLOUDY    80  66  62 SW8       29.96R
DEL RIO        PTSUNNY   82  72  71 E6        29.99R
EL PASO        CLOUDY    73  63  70 S6        30.22R
HOUSTON INT    PTSUNNY   83  74  74 S7        29.99R
LUBBOCK        CLOUDY    67  57  70 N13       30.22S
SAN ANGELO     CLOUDY    74  63  68 N14       30.11R
SAN ANTONIO    PTSUNNY   83  73  72 SW6       29.99R
WACO           CLOUDY    80  73  79 S8        29.97R
WICHITA FALLS  NOT AVBL
$$
...OTHER LOCATIONS IN NEW MEXICO...

CITY           SKY/WX    TMP DP  RH WIND       PRES   REMARKS
ALAMAGORDO     CLOUDY    72  64  78 CALM      30.24S
ALBUQUERQUE    PTSUNNY   69  57  65 NE6       30.30S
CANNON AFB     MOSUNNY   66  59  77 NE12      30.28R
CLOVIS         NOT AVBL
HOLLOMAN AFB   CLOUDY    72  66  83 E5        30.22R
ROSWELL        CLOUDY    69  61  75 NE6       30.25F
RUIDOSO        NOT AVBL
SANTA FE       CLOUDY    62  55  77 S9        30.36R
TRUTH OR CONSE MOSUNNY   70  60  70 S3        30.25S
TUCUMCARI      CLOUDY    66  55  67 E6        30.28R
$$

USA.gov is the U.S. government's official web portal to all federal, state and local government web resources and services.